Chillicothe, MO

11:25 PM CST on December 12, 2019 (GMT -0600)
Chillicothe

Weather History for KCDJ - October, 2019

Change the Weather History Date:

Friday, October 4, 2019

  Actual Average (KIRK) Record (KIRK)
Temperature  
Mean Temperature 54 °F -  
Max Temperature 61 °F 71 °F 91 °F (1938)
Min Temperature 46 °F 47 °F 32 °F (1950)
Degree Days  
Heating Degree Days 12    
Growing Degree Days 4 (Base 50)    
Moisture  
Dew Point 47 °F    
Average Humidity 78    
Maximum Humidity 93    
Minimum Humidity 62    
Precipitation  
Precipitation 0.00 in - - ()
Sea Level Pressure  
Sea Level Pressure 30.31 in    
Wind  
Wind Speed 5 mph (ENE)    
Max Wind Speed 8 mph    
Max Gust Speed -    
Averages and records for this station are not official NWS values.
T = Trace of Precipitation, MM = Missing Value Source: NWS Daily Summary

Daily Weather History Graph

Daily Weather History Graph

Search for Another Location

Airport or City:

Astronomy

Oct. 04, 2019 Rise Set
Actual Time 7:13 AM CDT 6:52 PM CDT
Civil Twilight 6:46 AM CDT 7:19 PM CDT
Nautical Twilight 6:15 AM CDT 7:50 PM CDT
Astronomical Twilight 5:43 AM CDT 8:21 PM CDT
Moon 1:45 PM CDT (10/4) 11:22 PM CDT (10/4)
Length of Visible Light 12h 32m
Length of Day
11h 38m
Waxing Crescent, 40% of the Moon is Illuminated
Oct 4
Waxing Crescent
Oct 5
First Quarter
Oct 13
Full
Oct 21
Last Quarter
Oct 27
New

Hourly Weather History & Observations

Time (CDT) Temp. Dew Point Humidity Pressure Visibility Wind Dir Wind Speed Gust Speed Precip Events Conditions
12:52 AM 50.0 °F 48.0 °F 93% 30.37 in - Variable 3.5 mph - N/A   Unknown
1:52 AM 50.0 °F 46.9 °F 89% 30.37 in - NE 4.6 mph - N/A   Unknown
2:52 AM 48.9 °F 46.0 °F 90% 30.37 in - NE 3.5 mph - N/A   Unknown
3:52 AM 48.0 °F 45.0 °F 89% 30.38 in - North 3.5 mph - N/A   Unknown
4:52 AM 48.0 °F 45.0 °F 89% 30.38 in - North 4.6 mph - N/A   Unknown
5:52 AM 46.9 °F 44.1 °F 90% 30.38 in - NNE 8.1 mph - N/A   Unknown
6:52 AM 46.9 °F 44.1 °F 90% 30.39 in - NE 8.1 mph - N/A   Unknown
7:52 AM 48.0 °F 43.0 °F 83% 30.40 in - ENE 4.6 mph - N/A   Unknown
8:52 AM 48.9 °F 44.1 °F 83% 30.40 in - ENE 5.8 mph - N/A   Unknown
9:52 AM 50.0 °F 44.1 °F 80% 30.41 in - Variable 4.6 mph - N/A   Unknown
1:52 PM 59.0 °F 46.9 °F 64% 30.32 in - North - - N/A   Unknown
2:52 PM 60.1 °F 48.0 °F 64% 30.30 in - Variable 6.9 mph - N/A   Unknown
3:52 PM 61.0 °F 48.0 °F 62% 30.28 in - Variable 3.5 mph - N/A   Unknown
4:52 PM 60.1 °F 48.0 °F 64% 30.27 in - North - - N/A   Unknown
5:52 PM 60.1 °F 48.0 °F 64% 30.26 in - Variable 4.6 mph - N/A   Unknown
6:52 PM 59.0 °F 48.9 °F 69% 30.25 in - East 3.5 mph - N/A   Unknown
7:52 PM 57.9 °F 50.0 °F 75% 30.22 in - Variable 3.5 mph - N/A   Unknown
8:52 PM 57.0 °F 50.0 °F 77% 30.22 in - East 3.5 mph - N/A   Unknown
9:52 PM 57.9 °F 50.0 °F 75% 30.20 in - ESE 5.8 mph - N/A   Unknown
10:52 PM 57.9 °F 51.1 °F 78% 30.17 in - ESE 3.5 mph - N/A   Unknown
11:52 PM 57.0 °F 50.0 °F 77% 30.13 in - ESE 4.6 mph - N/A   Unknown